Location: Seattle
(47.6064°N, 122.3308°W)
Time: 14:39:36
(UTC-08:00)

SR - Pass Details

Date: 04 December 2020
Orbit: 575 x 880 km, 66.7° (Epoch: 23 January)

Event Time Altitude Azimuth Distance (km) Brightness Sun altitude
Rises 19:05:53 0° 264° (W) 2,876 ? -27.3°
Reaches altitude 10° 19:08:42 10° 283° (WNW) 2,019 ? -27.8°
Maximum altitude 19:11:53 18° 328° (NNW) 1,597 ? -28.3°
Enters shadow 19:12:59 17° 345° (NNW) 1,679 ? -28.5°
